Year,Month,Day,Hour,Minute,Value (Times are PST for temperature in C)
2010,08,23,00,00,11.30
2010,08,23,00,01,11.30
2010,08,23,00,02,11.20
2010,08,23,00,03,11.20
2010,08,23,00,04,11.20
2010,08,23,00,05,11.10
2010,08,23,00,06,11.10
2010,08,23,00,07,11.10
2010,08,23,00,08,11.10
2010,08,23,00,09,11.10
2010,08,23,00,10,11.00
2010,08,23,00,11,11.00
2010,08,23,00,12,10.90
2010,08,23,00,13,10.90
2010,08,23,00,14,10.90
2010,08,23,00,15,10.90
2010,08,23,00,16,10.90
2010,08,23,00,17,10.80
2010,08,23,00,18,10.80
2010,08,23,00,19,10.80
2010,08,23,00,20,10.80
2010,08,23,00,21,10.80
2010,08,23,00,22,10.80
2010,08,23,00,23,10.80
2010,08,23,00,24,10.80
2010,08,23,00,25,10.80
2010,08,23,00,26,10.80
2010,08,23,00,27,10.80
2010,08,23,00,28,10.80
2010,08,23,00,29,10.80
2010,08,23,00,30,10.70
2010,08,23,00,31,10.70
2010,08,23,00,32,10.60
2010,08,23,00,33,10.60
2010,08,23,00,34,10.50
2010,08,23,00,35,10.50
2010,08,23,00,36,10.50
2010,08,23,00,37,10.50
2010,08,23,00,38,10.50
2010,08,23,00,39,10.40
2010,08,23,00,40,10.40
2010,08,23,00,41,10.40
2010,08,23,00,42,10.50
2010,08,23,00,43,10.50
2010,08,23,00,44,10.50
2010,08,23,00,45,10.60
2010,08,23,00,46,10.60
2010,08,23,00,47,10.60
2010,08,23,00,48,10.60
2010,08,23,00,49,10.60
2010,08,23,00,50,10.60
2010,08,23,00,51,10.60
2010,08,23,00,52,10.60
2010,08,23,00,53,10.60
2010,08,23,00,54,10.60
2010,08,23,00,55,10.60
2010,08,23,00,56,10.60
2010,08,23,00,57,10.60
2010,08,23,00,58,10.60
2010,08,23,00,59,10.50
2010,08,23,01,00,10.50
2010,08,23,01,01,10.40
2010,08,23,01,02,10.40
2010,08,23,01,03,10.30
2010,08,23,01,04,10.30
2010,08,23,01,05,10.30
2010,08,23,01,06,10.30
2010,08,23,01,07,10.30
2010,08,23,01,08,10.30
2010,08,23,01,09,10.30
2010,08,23,01,10,10.30
2010,08,23,01,11,10.30
2010,08,23,01,12,10.30
2010,08,23,01,13,10.30
2010,08,23,01,14,10.30
2010,08,23,01,15,10.20
2010,08,23,01,16,10.20
2010,08,23,01,17,10.20
2010,08,23,01,18,10.20
2010,08,23,01,19,10.20
2010,08,23,01,20,10.20
2010,08,23,01,21,10.10
2010,08,23,01,22,10.10
2010,08,23,01,23,10.10
2010,08,23,01,24,10.00
2010,08,23,01,25,10.00
2010,08,23,01,26,10.00
2010,08,23,01,27,9.90
2010,08,23,01,28,9.90
2010,08,23,01,29,9.90
2010,08,23,01,30,9.90
2010,08,23,01,31,9.80
2010,08,23,01,32,9.80
2010,08,23,01,33,9.80
2010,08,23,01,34,9.70
2010,08,23,01,35,9.70
2010,08,23,01,36,9.70
2010,08,23,01,37,9.60
2010,08,23,01,38,9.60
2010,08,23,01,39,9.60
2010,08,23,01,40,9.60
2010,08,23,01,41,9.60
2010,08,23,01,42,9.50
2010,08,23,01,43,9.50
2010,08,23,01,44,9.50
2010,08,23,01,45,9.50
2010,08,23,01,46,9.40
2010,08,23,01,47,9.40
2010,08,23,01,48,9.40
2010,08,23,01,49,9.40
2010,08,23,01,50,9.40
2010,08,23,01,51,9.40
2010,08,23,01,52,9.40
2010,08,23,01,53,9.40
2010,08,23,01,54,9.40
2010,08,23,01,55,9.40
2010,08,23,01,56,9.40
2010,08,23,01,57,9.40
2010,08,23,01,58,9.30
2010,08,23,01,59,9.30
2010,08,23,02,00,9.30
2010,08,23,02,01,9.30
2010,08,23,02,02,9.30
2010,08,23,02,03,9.30
2010,08,23,02,04,9.30
2010,08,23,02,05,9.30
2010,08,23,02,06,9.30
2010,08,23,02,07,9.30
2010,08,23,02,08,9.30
2010,08,23,02,09,9.30
2010,08,23,02,10,9.30
2010,08,23,02,11,9.30
2010,08,23,02,12,9.30
2010,08,23,02,13,9.30
2010,08,23,02,14,9.30
2010,08,23,02,15,9.30
2010,08,23,02,16,9.30
2010,08,23,02,17,9.30
2010,08,23,02,18,9.30
2010,08,23,02,19,9.30
2010,08,23,02,20,9.30
2010,08,23,02,21,9.30
2010,08,23,02,22,9.30
2010,08,23,02,23,9.20
2010,08,23,02,24,9.20
2010,08,23,02,25,9.20
2010,08,23,02,26,9.20
2010,08,23,02,27,9.20
2010,08,23,02,28,9.10
2010,08,23,02,29,9.10
2010,08,23,02,30,9.10
2010,08,23,02,31,9.10
2010,08,23,02,32,9.10
2010,08,23,02,33,9.10
2010,08,23,02,34,9.10
2010,08,23,02,35,9.10
2010,08,23,02,36,9.10
2010,08,23,02,37,9.10
2010,08,23,02,38,9.10
2010,08,23,02,39,9.10
2010,08,23,02,40,9.10
2010,08,23,02,41,9.10
2010,08,23,02,42,9.10
2010,08,23,02,43,9.00
2010,08,23,02,44,9.00
2010,08,23,02,45,9.00
2010,08,23,02,46,8.90
2010,08,23,02,47,8.90
2010,08,23,02,48,8.90
2010,08,23,02,49,8.90
2010,08,23,02,50,8.80
2010,08,23,02,51,8.80
2010,08,23,02,52,8.80
2010,08,23,02,53,8.70
2010,08,23,02,54,8.70
2010,08,23,02,55,8.70
2010,08,23,02,56,8.60
2010,08,23,02,57,8.60
2010,08,23,02,58,8.60
2010,08,23,02,59,8.60
2010,08,23,03,00,8.60
2010,08,23,03,01,8.60
2010,08,23,03,02,8.60
2010,08,23,03,03,8.60
2010,08,23,03,04,8.60
2010,08,23,03,05,8.60
2010,08,23,03,06,8.60
2010,08,23,03,07,8.60
2010,08,23,03,08,8.50
2010,08,23,03,09,8.50
2010,08,23,03,10,8.40
2010,08,23,03,11,8.40
2010,08,23,03,12,8.40
2010,08,23,03,13,8.40
2010,08,23,03,14,8.40
2010,08,23,03,15,8.50
2010,08,23,03,16,8.50
2010,08,23,03,17,8.50
2010,08,23,03,18,8.50
2010,08,23,03,19,8.50
2010,08,23,03,20,8.50
2010,08,23,03,21,8.60
2010,08,23,03,22,8.60
2010,08,23,03,23,8.60
2010,08,23,03,24,8.60
2010,08,23,03,25,8.60
2010,08,23,03,26,8.60
2010,08,23,03,27,8.60
2010,08,23,03,28,8.60
2010,08,23,03,29,8.50
2010,08,23,03,30,8.50
2010,08,23,03,31,8.50
2010,08,23,03,32,8.50
2010,08,23,03,33,8.40
2010,08,23,03,34,8.40
2010,08,23,03,35,8.40
2010,08,23,03,36,8.40
2010,08,23,03,37,8.30
2010,08,23,03,38,8.30
2010,08,23,03,39,8.30
2010,08,23,03,40,8.30
2010,08,23,03,41,8.30
2010,08,23,03,42,8.30
2010,08,23,03,43,8.20
2010,08,23,03,44,8.20
2010,08,23,03,45,8.20
2010,08,23,03,46,8.20
2010,08,23,03,47,8.20
2010,08,23,03,48,8.20
2010,08,23,03,49,8.20
2010,08,23,03,50,8.10
2010,08,23,03,51,8.10
2010,08,23,03,52,8.10
2010,08,23,03,53,8.10
2010,08,23,03,54,8.10
2010,08,23,03,55,8.00
2010,08,23,03,56,8.00
2010,08,23,03,57,8.00
2010,08,23,03,58,8.10
2010,08,23,03,59,8.10
2010,08,23,04,00,8.10
2010,08,23,04,01,8.20
2010,08,23,04,02,8.20
2010,08,23,04,03,8.20
2010,08,23,04,04,8.20
2010,08,23,04,05,8.20
2010,08,23,04,06,8.20
2010,08,23,04,07,8.20
2010,08,23,04,08,8.20
2010,08,23,04,09,8.20
2010,08,23,04,10,8.20
2010,08,23,04,11,8.20
2010,08,23,04,12,8.20
2010,08,23,04,13,8.20
2010,08,23,04,14,8.20
2010,08,23,04,15,8.30
2010,08,23,04,16,8.30
2010,08,23,04,17,8.30
2010,08,23,04,18,8.30
2010,08,23,04,19,8.30
2010,08,23,04,20,8.30
2010,08,23,04,21,8.30
2010,08,23,04,22,8.30
2010,08,23,04,23,8.30
2010,08,23,04,24,8.30
2010,08,23,04,25,8.20
2010,08,23,04,26,8.20
2010,08,23,04,27,8.20
2010,08,23,04,28,8.20
2010,08,23,04,29,8.10
2010,08,23,04,30,8.10
2010,08,23,04,31,8.20
2010,08,23,04,32,8.20
2010,08,23,04,33,8.20
2010,08,23,04,34,8.20
2010,08,23,04,35,8.20
2010,08,23,04,36,8.20
2010,08,23,04,37,8.20
2010,08,23,04,38,8.20
2010,08,23,04,39,8.20
2010,08,23,04,40,8.20
2010,08,23,04,41,8.20
2010,08,23,04,42,8.20
2010,08,23,04,43,8.30
2010,08,23,04,44,8.30
2010,08,23,04,45,8.30
2010,08,23,04,46,8.40
2010,08,23,04,47,8.40
2010,08,23,04,48,8.40
2010,08,23,04,49,8.40
2010,08,23,04,50,8.50
2010,08,23,04,51,8.50
2010,08,23,04,52,8.60
2010,08,23,04,53,8.60
2010,08,23,04,54,8.60
2010,08,23,04,55,8.60
2010,08,23,04,56,8.60
2010,08,23,04,57,8.60
2010,08,23,04,58,8.60
2010,08,23,04,59,8.60
2010,08,23,05,00,8.60
2010,08,23,05,01,8.50
2010,08,23,05,02,8.50
2010,08,23,05,03,8.50
2010,08,23,05,04,8.60
2010,08,23,05,05,8.60
2010,08,23,05,06,8.50
2010,08,23,05,07,8.50
2010,08,23,05,08,8.50
2010,08,23,05,09,8.50
2010,08,23,05,10,8.50
2010,08,23,05,11,8.50
2010,08,23,05,12,8.50
2010,08,23,05,13,8.60
2010,08,23,05,14,8.60
2010,08,23,05,15,8.60
2010,08,23,05,16,8.60
2010,08,23,05,17,8.60
2010,08,23,05,18,8.60
2010,08,23,05,19,8.60
2010,08,23,05,20,8.70
2010,08,23,05,21,8.70
2010,08,23,05,22,8.70
2010,08,23,05,23,8.70
2010,08,23,05,24,8.70
2010,08,23,05,25,8.70
2010,08,23,05,26,8.70
2010,08,23,05,27,8.70
2010,08,23,05,28,8.70
2010,08,23,05,29,8.70
2010,08,23,05,30,8.70
2010,08,23,05,31,8.70
2010,08,23,05,32,8.70
2010,08,23,05,33,8.70
2010,08,23,05,34,8.70
2010,08,23,05,35,8.70
2010,08,23,05,36,8.70
2010,08,23,05,37,8.80
2010,08,23,05,38,8.80
2010,08,23,05,39,8.80
2010,08,23,05,40,8.80
2010,08,23,05,41,8.80
2010,08,23,05,42,8.80
2010,08,23,05,43,8.80
2010,08,23,05,44,8.80
2010,08,23,05,45,8.80
2010,08,23,05,46,8.80
2010,08,23,05,47,8.80
2010,08,23,05,48,8.80
2010,08,23,05,49,8.80
2010,08,23,05,50,8.80
2010,08,23,05,51,8.80
2010,08,23,05,52,8.80
2010,08,23,05,53,8.80
2010,08,23,05,54,8.80
2010,08,23,05,55,8.80
2010,08,23,05,56,8.80
2010,08,23,05,57,8.80
2010,08,23,05,58,8.80
2010,08,23,05,59,8.80
2010,08,23,06,00,8.80
2010,08,23,06,01,8.80
2010,08,23,06,02,8.80
2010,08,23,06,03,8.80
2010,08,23,06,04,8.80
2010,08,23,06,05,8.80
2010,08,23,06,06,8.80
2010,08,23,06,07,8.80
2010,08,23,06,08,8.80
2010,08,23,06,09,8.80
2010,08,23,06,10,8.80
2010,08,23,06,11,8.80
2010,08,23,06,12,8.80
2010,08,23,06,13,8.80
2010,08,23,06,14,8.80
2010,08,23,06,15,8.80
2010,08,23,06,16,8.80
2010,08,23,06,17,8.80
2010,08,23,06,18,8.80
2010,08,23,06,19,8.80
2010,08,23,06,20,8.80
2010,08,23,06,21,8.80
2010,08,23,06,22,8.80
2010,08,23,06,23,8.80
2010,08,23,06,24,8.80
2010,08,23,06,25,8.80
2010,08,23,06,26,8.80
2010,08,23,06,27,8.80
2010,08,23,06,28,8.80
2010,08,23,06,29,8.80
2010,08,23,06,30,8.80
2010,08,23,06,31,8.80
2010,08,23,06,32,8.80
2010,08,23,06,33,8.80
2010,08,23,06,34,8.80
2010,08,23,06,35,8.80
2010,08,23,06,36,8.80
2010,08,23,06,37,8.80
2010,08,23,06,38,8.80
2010,08,23,06,39,8.80
2010,08,23,06,40,8.80
2010,08,23,06,41,8.80
2010,08,23,06,42,8.80
2010,08,23,06,43,8.80
2010,08,23,06,44,8.80
2010,08,23,06,45,8.80
2010,08,23,06,46,8.80
2010,08,23,06,47,8.80
2010,08,23,06,48,8.80
2010,08,23,06,49,8.80
2010,08,23,06,50,8.90
2010,08,23,06,51,8.90
2010,08,23,06,52,8.90
2010,08,23,06,53,8.90
2010,08,23,06,54,8.90
2010,08,23,06,55,8.90
2010,08,23,06,56,8.90
2010,08,23,06,57,8.90
2010,08,23,06,58,8.90
2010,08,23,06,59,8.90
2010,08,23,07,00,8.90
2010,08,23,07,01,8.90
2010,08,23,07,02,8.90
2010,08,23,07,03,8.90
2010,08,23,07,04,8.90
2010,08,23,07,05,8.90
2010,08,23,07,06,8.90
2010,08,23,07,07,8.90
2010,08,23,07,08,8.90
2010,08,23,07,09,8.90
2010,08,23,07,10,8.90
2010,08,23,07,11,8.90
2010,08,23,07,12,8.90
2010,08,23,07,13,8.90
2010,08,23,07,14,8.90
2010,08,23,07,15,8.90
2010,08,23,07,16,8.90
2010,08,23,07,17,8.90
2010,08,23,07,18,8.90
2010,08,23,07,19,8.90
2010,08,23,07,20,8.90
2010,08,23,07,21,8.90
2010,08,23,07,22,8.90
2010,08,23,07,23,8.90
2010,08,23,07,24,8.90
2010,08,23,07,25,8.90
2010,08,23,07,26,8.90
2010,08,23,07,27,8.90
2010,08,23,07,28,8.90
2010,08,23,07,29,8.90
2010,08,23,07,30,8.90
2010,08,23,07,31,8.80
2010,08,23,07,32,8.80
2010,08,23,07,33,8.80
2010,08,23,07,34,8.80
2010,08,23,07,35,8.80
2010,08,23,07,36,8.80
2010,08,23,07,37,8.90
2010,08,23,07,38,8.90
2010,08,23,07,39,8.90
2010,08,23,07,40,8.90
2010,08,23,07,41,8.90
2010,08,23,07,42,8.90
2010,08,23,07,43,9.00
2010,08,23,07,44,9.00
2010,08,23,07,45,9.10
2010,08,23,07,46,9.10
2010,08,23,07,47,9.10
2010,08,23,07,48,9.10
2010,08,23,07,49,9.10
2010,08,23,07,50,9.20
2010,08,23,07,51,9.20
2010,08,23,07,52,9.20
2010,08,23,07,53,9.30
2010,08,23,07,54,9.30
2010,08,23,07,55,9.40
2010,08,23,07,56,9.40
2010,08,23,07,57,9.40
2010,08,23,07,58,9.50
2010,08,23,07,59,9.50
2010,08,23,08,00,9.60
2010,08,23,08,01,9.60
2010,08,23,08,02,9.60
2010,08,23,08,03,9.70
2010,08,23,08,04,9.70
2010,08,23,08,05,9.80
2010,08,23,08,06,9.80
2010,08,23,08,07,9.80
2010,08,23,08,08,9.80
2010,08,23,08,09,9.90
2010,08,23,08,10,9.90
2010,08,23,08,11,9.90
2010,08,23,08,12,10.00
2010,08,23,08,13,10.00
2010,08,23,08,14,10.00
2010,08,23,08,15,10.10
2010,08,23,08,16,10.10
2010,08,23,08,17,10.10
2010,08,23,08,18,10.10
2010,08,23,08,19,10.10
2010,08,23,08,20,10.20
2010,08,23,08,21,10.20
2010,08,23,08,22,10.20
2010,08,23,08,23,10.20
2010,08,23,08,24,10.20
2010,08,23,08,25,10.20
2010,08,23,08,26,10.30
2010,08,23,08,27,10.30
2010,08,23,08,28,10.30
2010,08,23,08,29,10.40
2010,08,23,08,30,10.40
2010,08,23,08,31,10.50
2010,08,23,08,32,10.60
2010,08,23,08,33,10.60
2010,08,23,08,34,10.70
2010,08,23,08,35,10.70
2010,08,23,08,36,10.80
2010,08,23,08,37,10.80
2010,08,23,08,38,10.90
2010,08,23,08,39,11.00
2010,08,23,08,40,11.00
2010,08,23,08,41,11.10
2010,08,23,08,42,11.10
2010,08,23,08,43,11.20
2010,08,23,08,44,11.30
2010,08,23,08,45,11.30
2010,08,23,08,46,11.30
2010,08,23,08,47,11.40
2010,08,23,08,48,11.40
2010,08,23,08,49,11.50
2010,08,23,08,50,11.50
2010,08,23,08,51,11.60
2010,08,23,08,52,11.60
2010,08,23,08,53,11.60
2010,08,23,08,54,11.70
2010,08,23,08,55,11.70
2010,08,23,08,56,11.70
2010,08,23,08,57,11.70
2010,08,23,08,58,11.70
2010,08,23,08,59,11.70
2010,08,23,09,00,11.80
2010,08,23,09,01,11.80
2010,08,23,09,02,11.80
2010,08,23,09,03,11.80
2010,08,23,09,04,11.90
2010,08,23,09,05,12.00
2010,08,23,09,06,12.00
2010,08,23,09,07,12.10
2010,08,23,09,08,12.20
2010,08,23,09,09,12.20
2010,08,23,09,10,12.30
2010,08,23,09,11,12.40
2010,08,23,09,12,12.50
2010,08,23,09,13,12.60
2010,08,23,09,14,12.70
2010,08,23,09,15,12.80
2010,08,23,09,16,12.80
2010,08,23,09,17,12.90
2010,08,23,09,18,13.00
2010,08,23,09,19,13.00
2010,08,23,09,20,13.10
2010,08,23,09,21,13.10
2010,08,23,09,22,13.10
2010,08,23,09,23,13.10
2010,08,23,09,24,13.10
2010,08,23,09,25,13.10
2010,08,23,09,26,13.10
2010,08,23,09,27,13.10
2010,08,23,09,28,13.10
2010,08,23,09,29,13.20
2010,08,23,09,30,13.20
2010,08,23,09,31,13.20
2010,08,23,09,32,13.20
2010,08,23,09,33,13.30
2010,08,23,09,34,13.30
2010,08,23,09,35,13.40
2010,08,23,09,36,13.50
2010,08,23,09,37,13.50
2010,08,23,09,38,13.60
2010,08,23,09,39,13.60
2010,08,23,09,40,13.70
2010,08,23,09,41,13.70
2010,08,23,09,42,13.80
2010,08,23,09,43,13.90
2010,08,23,09,44,13.90
2010,08,23,09,45,14.00
2010,08,23,09,46,14.10
2010,08,23,09,47,14.10
2010,08,23,09,48,14.20
2010,08,23,09,49,14.20
2010,08,23,09,50,14.20
2010,08,23,09,51,14.20
2010,08,23,09,52,14.20
2010,08,23,09,53,14.30
2010,08,23,09,54,14.30
2010,08,23,09,55,14.40
2010,08,23,09,56,14.40
2010,08,23,09,57,14.50
2010,08,23,09,58,14.60
2010,08,23,09,59,14.60
2010,08,23,10,00,14.70
2010,08,23,10,01,14.70
2010,08,23,10,02,14.80
2010,08,23,10,03,14.80
2010,08,23,10,04,14.90
2010,08,23,10,05,15.00
2010,08,23,10,06,15.00
2010,08,23,10,07,15.00
2010,08,23,10,08,15.00
2010,08,23,10,09,15.10
2010,08,23,10,10,15.30
2010,08,23,10,11,15.30
2010,08,23,10,12,15.40
2010,08,23,10,13,15.50
2010,08,23,10,14,15.60
2010,08,23,10,15,15.80
2010,08,23,10,16,15.80
2010,08,23,10,17,15.90
2010,08,23,10,18,16.00
2010,08,23,10,19,16.10
2010,08,23,10,20,16.20
2010,08,23,10,21,16.20
2010,08,23,10,22,16.30
2010,08,23,10,23,16.40
2010,08,23,10,24,16.40
2010,08,23,10,25,16.50
2010,08,23,10,26,16.50
2010,08,23,10,27,16.60
2010,08,23,10,28,16.60
2010,08,23,10,29,16.60
2010,08,23,10,30,16.60
2010,08,23,10,31,16.70
2010,08,23,10,32,16.70
2010,08,23,10,33,16.70
2010,08,23,10,34,16.80
2010,08,23,10,35,16.90
2010,08,23,10,36,16.90
2010,08,23,10,37,17.00
2010,08,23,10,38,17.10
2010,08,23,10,39,17.10
2010,08,23,10,40,17.20
2010,08,23,10,41,17.20
2010,08,23,10,42,17.30
2010,08,23,10,43,17.40
2010,08,23,10,44,17.50
2010,08,23,10,45,17.50
2010,08,23,10,46,17.60
2010,08,23,10,47,17.60
2010,08,23,10,48,17.70
2010,08,23,10,49,17.80
2010,08,23,10,50,17.80
2010,08,23,10,51,17.90
2010,08,23,10,52,17.90
2010,08,23,10,53,18.00
2010,08,23,10,54,18.10
2010,08,23,10,55,18.10
2010,08,23,10,56,18.10
2010,08,23,10,57,18.10
2010,08,23,10,58,18.10
2010,08,23,10,59,18.10
2010,08,23,11,00,18.10
2010,08,23,11,01,18.10
2010,08,23,11,02,18.10
2010,08,23,11,03,18.10
2010,08,23,11,04,18.00
2010,08,23,11,05,18.00
2010,08,23,11,06,17.90
2010,08,23,11,07,17.80
2010,08,23,11,08,17.80
2010,08,23,11,09,17.80
2010,08,23,11,10,17.80
2010,08,23,11,11,17.80
2010,08,23,11,12,17.90
2010,08,23,11,13,17.90
2010,08,23,11,14,17.90
2010,08,23,11,15,18.00
2010,08,23,11,16,18.10
2010,08,23,11,17,18.10
2010,08,23,11,18,18.20
2010,08,23,11,19,18.20
2010,08,23,11,20,18.40
2010,08,23,11,21,18.50
2010,08,23,11,22,18.60
2010,08,23,11,23,18.80
2010,08,23,11,24,18.90
2010,08,23,11,25,19.10
2010,08,23,11,26,19.20
2010,08,23,11,27,19.30
2010,08,23,11,28,19.40
2010,08,23,11,29,19.40
2010,08,23,11,30,19.50
2010,08,23,11,31,19.60
2010,08,23,11,32,19.60
2010,08,23,11,33,19.70
2010,08,23,11,34,19.70
2010,08,23,11,35,19.70
2010,08,23,11,36,19.70
2010,08,23,11,37,19.80
2010,08,23,11,38,19.80
2010,08,23,11,39,19.70
2010,08,23,11,40,19.60
2010,08,23,11,41,19.60
2010,08,23,11,42,19.50
2010,08,23,11,43,19.40
2010,08,23,11,44,19.40
2010,08,23,11,45,19.50
2010,08,23,11,46,19.60
2010,08,23,11,47,19.60
2010,08,23,11,48,19.70
2010,08,23,11,49,19.80
2010,08,23,11,50,19.90
2010,08,23,11,51,20.00
2010,08,23,11,52,20.10
2010,08,23,11,53,20.10
2010,08,23,11,54,20.10
2010,08,23,11,55,20.20
2010,08,23,11,56,20.20
2010,08,23,11,57,20.20
2010,08,23,11,58,20.20
2010,08,23,11,59,20.10
2010,08,23,12,00,20.20
2010,08,23,12,01,20.20
2010,08,23,12,02,20.20
2010,08,23,12,03,20.20
2010,08,23,12,04,20.20
2010,08,23,12,05,20.20
2010,08,23,12,06,20.20
2010,08,23,12,07,20.30
2010,08,23,12,08,20.30
2010,08,23,12,09,20.40
2010,08,23,12,10,20.40
2010,08,23,12,11,20.50
2010,08,23,12,12,20.60
2010,08,23,12,13,20.70
2010,08,23,12,14,20.80
2010,08,23,12,15,20.80
2010,08,23,12,16,20.60
2010,08,23,12,17,20.40
2010,08,23,12,18,20.30
2010,08,23,12,19,20.20
2010,08,23,12,20,20.10
2010,08,23,12,21,20.10
2010,08,23,12,22,20.10
2010,08,23,12,23,20.10
2010,08,23,12,24,20.20
2010,08,23,12,25,20.30
2010,08,23,12,26,20.40
2010,08,23,12,27,20.50
2010,08,23,12,28,20.70
2010,08,23,12,29,20.80
2010,08,23,12,30,20.90
2010,08,23,12,31,21.00
2010,08,23,12,32,21.20
2010,08,23,12,33,21.20
2010,08,23,12,34,21.20
2010,08,23,12,35,21.10
2010,08,23,12,36,21.20
2010,08,23,12,37,21.10
2010,08,23,12,38,21.10
2010,08,23,12,39,21.20
2010,08,23,12,40,21.20
2010,08,23,12,41,21.30
2010,08,23,12,42,21.30
2010,08,23,12,43,21.30
2010,08,23,12,44,21.20
2010,08,23,12,45,20.90
2010,08,23,12,46,20.80
2010,08,23,12,47,20.60
2010,08,23,12,48,20.40
2010,08,23,12,49,20.30
2010,08,23,12,50,20.30
2010,08,23,12,51,20.40
2010,08,23,12,52,20.50
2010,08,23,12,53,20.60
2010,08,23,12,54,20.70
2010,08,23,12,55,20.70
2010,08,23,12,56,20.80
2010,08,23,12,57,20.90
2010,08,23,12,58,21.10
2010,08,23,12,59,21.20
2010,08,23,13,00,21.30
2010,08,23,13,01,21.40
2010,08,23,13,02,21.50
2010,08,23,13,03,21.50
2010,08,23,13,04,21.40
2010,08,23,13,05,21.30
2010,08,23,13,06,21.30
2010,08,23,13,07,21.20
2010,08,23,13,08,21.20
2010,08,23,13,09,21.20
2010,08,23,13,10,21.30
2010,08,23,13,11,21.30
2010,08,23,13,12,21.40
2010,08,23,13,13,21.50
2010,08,23,13,14,21.60
2010,08,23,13,15,21.50
2010,08,23,13,16,21.40
2010,08,23,13,17,21.30
2010,08,23,13,18,21.20
2010,08,23,13,19,21.20
2010,08,23,13,20,21.20
2010,08,23,13,21,21.30
2010,08,23,13,22,21.40
2010,08,23,13,23,21.40
2010,08,23,13,24,21.50
2010,08,23,13,25,21.60
2010,08,23,13,26,21.60
2010,08,23,13,27,21.60
2010,08,23,13,28,21.50
2010,08,23,13,29,21.40
2010,08,23,13,30,21.30
2010,08,23,13,31,21.30
2010,08,23,13,32,21.20
2010,08,23,13,33,21.10
2010,08,23,13,34,21.10
2010,08,23,13,35,21.10
2010,08,23,13,36,21.10
2010,08,23,13,37,21.10
2010,08,23,13,38,21.10
2010,08,23,13,39,21.20
2010,08,23,13,40,21.30
2010,08,23,13,41,21.30
2010,08,23,13,42,21.30
2010,08,23,13,43,21.20
2010,08,23,13,44,21.10
2010,08,23,13,45,20.90
2010,08,23,13,46,20.80
2010,08,23,13,47,20.80
2010,08,23,13,48,20.90
2010,08,23,13,49,21.00
2010,08,23,13,50,21.20
2010,08,23,13,51,21.40
2010,08,23,13,52,21.40
2010,08,23,13,53,21.40
2010,08,23,13,54,21.30
2010,08,23,13,55,21.20
2010,08,23,13,56,21.10
2010,08,23,13,57,21.00
2010,08,23,13,58,20.90
2010,08,23,13,59,20.90
2010,08,23,14,00,20.90
2010,08,23,14,01,20.90
2010,08,23,14,02,20.90
2010,08,23,14,03,21.00
2010,08,23,14,04,21.10
2010,08,23,14,05,21.20
2010,08,23,14,06,21.30
2010,08,23,14,07,21.50
2010,08,23,14,08,21.60
2010,08,23,14,09,21.70
2010,08,23,14,10,21.80
2010,08,23,14,11,21.90
2010,08,23,14,12,22.00
2010,08,23,14,13,22.10
2010,08,23,14,14,22.10
2010,08,23,14,15,22.10
2010,08,23,14,16,22.00
2010,08,23,14,17,21.90
2010,08,23,14,18,21.90
2010,08,23,14,19,22.00
2010,08,23,14,20,22.10
2010,08,23,14,21,22.20
2010,08,23,14,22,22.30
2010,08,23,14,23,22.30
2010,08,23,14,24,22.30
2010,08,23,14,25,22.30
2010,08,23,14,26,22.40
2010,08,23,14,27,22.30
2010,08,23,14,28,22.20
2010,08,23,14,29,22.10
2010,08,23,14,30,22.10
2010,08,23,14,31,22.10
2010,08,23,14,32,22.10
2010,08,23,14,33,22.10
2010,08,23,14,34,22.10
2010,08,23,14,35,22.00
2010,08,23,14,36,22.10
2010,08,23,14,37,22.10
2010,08,23,14,38,22.20
2010,08,23,14,39,22.20
2010,08,23,14,40,22.30
2010,08,23,14,41,22.30
2010,08,23,14,42,22.30
2010,08,23,14,43,22.30
2010,08,23,14,44,22.20
2010,08,23,14,45,22.10
2010,08,23,14,46,22.00
2010,08,23,14,47,22.10
2010,08,23,14,48,22.10
2010,08,23,14,49,22.10
2010,08,23,14,50,22.10
2010,08,23,14,51,22.00
2010,08,23,14,52,21.90
2010,08,23,14,53,21.90
2010,08,23,14,54,21.90
2010,08,23,14,55,22.00
2010,08,23,14,56,22.10
2010,08,23,14,57,22.20
2010,08,23,14,58,22.30
2010,08,23,14,59,22.50
2010,08,23,15,00,22.60
2010,08,23,15,01,22.50
2010,08,23,15,02,22.50
2010,08,23,15,03,22.40
2010,08,23,15,04,22.40
2010,08,23,15,05,22.30
2010,08,23,15,06,22.30
2010,08,23,15,07,22.30
2010,08,23,15,08,22.20
2010,08,23,15,09,22.10
2010,08,23,15,10,22.00
2010,08,23,15,11,22.00
2010,08,23,15,12,21.90
2010,08,23,15,13,21.80
2010,08,23,15,14,21.80
2010,08,23,15,15,21.70
2010,08,23,15,16,21.70
2010,08,23,15,17,21.70
2010,08,23,15,18,21.80
2010,08,23,15,19,21.80
2010,08,23,15,20,21.80
2010,08,23,15,21,21.90
2010,08,23,15,22,22.00
2010,08,23,15,23,22.10
2010,08,23,15,24,22.10
2010,08,23,15,25,22.20
2010,08,23,15,26,22.30
2010,08,23,15,27,22.30
2010,08,23,15,28,22.40
2010,08,23,15,29,22.50
2010,08,23,15,30,22.40
2010,08,23,15,31,22.20
2010,08,23,15,32,22.00
2010,08,23,15,33,21.90
2010,08,23,15,34,21.90
2010,08,23,15,35,21.80
2010,08,23,15,36,21.80
2010,08,23,15,37,21.70
2010,08,23,15,38,21.70
2010,08,23,15,39,21.80
2010,08,23,15,40,21.80
2010,08,23,15,41,21.90
2010,08,23,15,42,21.90
2010,08,23,15,43,21.90
2010,08,23,15,44,21.90
2010,08,23,15,45,21.90
2010,08,23,15,46,22.00
2010,08,23,15,47,22.00
2010,08,23,15,48,22.10
2010,08,23,15,49,22.20
2010,08,23,15,50,22.20
2010,08,23,15,51,22.20
2010,08,23,15,52,22.30
2010,08,23,15,53,22.30
2010,08,23,15,54,22.20
2010,08,23,15,55,22.20
2010,08,23,15,56,22.10
2010,08,23,15,57,22.20
2010,08,23,15,58,22.20
2010,08,23,15,59,22.30
2010,08,23,16,00,22.40
2010,08,23,16,01,22.40
2010,08,23,16,02,22.40
2010,08,23,16,03,22.40
2010,08,23,16,04,22.30
2010,08,23,16,05,22.30
2010,08,23,16,06,22.30
2010,08,23,16,07,22.30
2010,08,23,16,08,22.40
2010,08,23,16,09,22.40
2010,08,23,16,10,22.40
2010,08,23,16,11,22.40
2010,08,23,16,12,22.40
2010,08,23,16,13,22.40
2010,08,23,16,14,22.40
2010,08,23,16,15,22.40
2010,08,23,16,16,22.40
2010,08,23,16,17,22.40
2010,08,23,16,18,22.40
2010,08,23,16,19,22.30
2010,08,23,16,20,22.20
2010,08,23,16,21,22.20
2010,08,23,16,22,22.10
2010,08,23,16,23,22.10
2010,08,23,16,24,22.10
2010,08,23,16,25,22.20
2010,08,23,16,26,22.10
2010,08,23,16,27,21.90
2010,08,23,16,28,21.80
2010,08,23,16,29,21.80
2010,08,23,16,30,21.70
2010,08,23,16,31,21.70
2010,08,23,16,32,21.70
2010,08,23,16,33,21.70
2010,08,23,16,34,21.70
2010,08,23,16,35,21.70
2010,08,23,16,36,21.70
2010,08,23,16,37,21.70
2010,08,23,16,38,21.70
2010,08,23,16,39,21.60
2010,08,23,16,40,21.60
2010,08,23,16,41,21.70
2010,08,23,16,42,21.60
2010,08,23,16,43,21.60
2010,08,23,16,44,21.60
2010,08,23,16,45,21.60
2010,08,23,16,46,21.60
2010,08,23,16,47,21.60
2010,08,23,16,48,21.60
2010,08,23,16,49,21.60
2010,08,23,16,50,21.60
2010,08,23,16,51,21.60
2010,08,23,16,52,21.60
2010,08,23,16,53,21.50
2010,08,23,16,54,21.40
2010,08,23,16,55,21.40
2010,08,23,16,56,21.40
2010,08,23,16,57,21.30
2010,08,23,16,58,21.30
2010,08,23,16,59,21.40
2010,08,23,17,00,21.40
2010,08,23,17,01,21.40
2010,08,23,17,02,21.50
2010,08,23,17,03,21.50
2010,08,23,17,04,21.60
2010,08,23,17,05,21.60
2010,08,23,17,06,21.60
2010,08,23,17,07,21.60
2010,08,23,17,08,21.70
2010,08,23,17,09,21.70
2010,08,23,17,10,21.70
2010,08,23,17,11,21.70
2010,08,23,17,12,21.50
2010,08,23,17,13,21.40
2010,08,23,17,14,21.30
2010,08,23,17,15,21.30
2010,08,23,17,16,21.20
2010,08,23,17,17,21.20
2010,08,23,17,18,21.30
2010,08,23,17,19,21.30
2010,08,23,17,20,21.30
2010,08,23,17,21,21.40
2010,08,23,17,22,21.40
2010,08,23,17,23,21.50
2010,08,23,17,24,21.50
2010,08,23,17,25,21.50
2010,08,23,17,26,21.40
2010,08,23,17,27,21.40
2010,08,23,17,28,21.30
2010,08,23,17,29,21.30
2010,08,23,17,30,21.20
2010,08,23,17,31,21.20
2010,08,23,17,32,21.30
2010,08,23,17,33,21.30
2010,08,23,17,34,21.30
2010,08,23,17,35,21.30
2010,08,23,17,36,21.40
2010,08,23,17,37,21.40